Wind_Speed
38 39 40 42 43 45 47 49 50 52 53 56 58 60 63 67 70 74 79 84 89 95 99 101 103 105 106 108 109 112 114 115 115 114 113 110 106 103 99 95 91 87 82
40 42 43 44 45 47 49 51 53 54 56 57 60 63 66 70 74 78 83 88 94 98 100 102 102 100 99 99 99 101 104 108 113 117 118 118 115 110 106 103 98 93 88
42 44 45 46 47 49 51 54 55 57 58 60 62 65 69 73 78 82 87 92 96 98 100 100 99 96 92 90 90 92 95 99 105 112 119 122 122 118 113 109 104 99 94
43 45 46 48 49 51 53 56 58 60 61 62 65 68 71 76 81 85 89 93 95 97 97 96 93 89 85 83 82 84 88 93 98 105 113 121 126 125 120 115 111 106 100
45 47 48 49 51 53 55 58 60 62 64 65 67 70 74 78 83 87 90 92 94 94 93 91 87 83 79 76 75 76 80 85 91 98 106 115 124 128 127 122 117 112 106
47 48 50 51 53 55 57 60 62 64 66 68 69 72 76 80 84 87 89 90 91 90 89 86 81 76 72 70 68 69 72 78 84 92 100 109 118 126 130 127 123 118 112
49 50 51 53 55 57 59 61 64 66 69 70 72 74 76 80 83 84 85 86 86 85 83 81 76 71 67 64 62 62 66 71 78 85 94 103 113 121 128 130 127 123 117
51 52 53 55 56 58 61 63 66 68 71 73 75 77 78 79 81 82 82 82 82 80 79 76 72 68 64 60 57 57 59 64 71 79 88 97 107 116 124 130 130 126 122
53 54 55 56 58 60 63 65 67 70 72 75 78 80 82 82 83 80 77 77 76 74 74 71 68 65 61 56 52 50 51 56 63 71 81 91 101 111 119 126 130 129 125
55 56 57 58 60 62 65 67 70 72 74 77 79 82 83 85 86 83 76 72 71 69 68 67 65 61 57 52 48 45 44 48 56 64 74 85 96 106 114 121 127 129 127
57 57 58 60 62 64 66 69 72 74 76 78 80 81 82 83 84 84 78 70 65 64 63 63 62 59 54 49 45 41 39 41 48 58 68 79 90 102 110 117 124 128 129
58 59 60 62 64 66 68 71 73 75 77 79 80 81 81 81 81 81 79 72 65 59 58 58 58 57 53 47 43 38 34 34 40 51 63 74 85 96 107 114 121 127 129
59 60 62 63 65 67 70 72 74 76 78 79 79 79 79 79 79 78 77 72 65 58 54 53 54 55 52 47 42 37 33 31 35 44 56 70 81 91 103 112 119 125 129
61 62 63 64 66 68 71 73 75 77 78 79 78 78 77 77 76 75 75 72 66 58 52 50 51 52 51 47 42 37 32 30 33 40 51 65 77 87 98 108 116 123 128
62 64 65 66 67 70 72 74 75 77 78 78 77 76 75 75 73 73 71 69 67 62 52 48 48 49 49 46 42 38 32 29 31 38 48 61 74 84 94 104 113 121 127
64 65 67 68 69 71 73 74 75 75 77 77 76 74 73 73 71 70 68 66 64 61 54 48 47 47 47 44 41 39 33 30 29 35 45 59 71 82 91 100 110 119 125
65 66 67 69 69 71 73 74 74 74 75 75 74 73 71 71 69 68 66 63 61 59 55 48 46 46 45 43 41 39 35 30 28 32 43 57 70 80 90 99 108 117 123
67 68 68 69 70 70 72 73 73 73 74 73 72 71 69 69 67 66 64 61 59 56 54 49 45 45 44 42 40 38 35 31 28 30 40 55 69 80 89 97 106 115 122
67 68 69 69 69 69 71 72 72 72 72 72 71 69 68 67 66 64 62 60 57 55 52 49 45 44 43 41 39 37 35 31 28 29 37 51 67 79 88 96 105 114 121
68 68 68 68 68 68 69 70 71 70 71 70 69 68 66 65 64 62 61 58 56 53 50 47 45 43 42 40 38 36 33 31 27 27 34 47 64 78 88 96 104 112 120
67 67 67 67 66 66 68 68 68 68 69 68 67 66 64 64 63 61 60 58 56 53 49 46 44 43 42 40 38 35 32 29 26 26 31 43 59 74 86 95 103 110 118
66 65 65 64 64 64 66 66 66 66 66 67 65 64 62 62 61 59 58 57 55 53 49 46 44 43 41 40 38 34 31 27 24 23 27 37 53 68 82 92 101 108 115
63 62 62 62 61 62 64 64 65 64 65 65 64 62 60 60 60 58 56 55 53 51 48 45 43 42 41 39 36 33 30 26 22 21 22 31 47 61 75 88 97 105 113
60 60 60 59 59 60 62 62 62 62 63 63 62 61 59 58 58 56 54 53 52 49 46 44 42 41 39 37 34 31 27 23 20 18 19 26 39 53 68 82 92 100 109
58 58 57 56 57 58 60 60 60 60 60 60 60 59 58 57 56 55 54 52 50 46 43 42 41 40 38 35 32 29 25 21 17 15 17 23 34 47 60 74 86 94 104
56 56 54 54 56 57 58 59 58 58 58 58 58 57 56 55 54 53 53 51 48 44 40 38 37 37 35 32 30 26 22 18 14 13 16 23 32 42 53 66 79 89 98
Wind_Direction
315 315 316 316 317 318 318 318 316 313 310 307 305 304 303 303 303 303 303 303 302 300 298 295 291 286 282 277 271 265 259 253 246 241 238 236 235 234 233 232 231 229 227
315 315 315 316 316 317 318 318 317 315 312 310 308 307 306 306 306 306 306 306 305 303 300 297 293 288 282 277 271 264 258 251 244 238 234 232 231 231 231 230 229 227 225
316 316 316 316 316 316 317 318 318 317 315 313 311 310 309 309 309 309 309 308 307 305 302 298 294 289 283 277 271 264 257 250 244 237 231 227 226 226 227 227 226 225 224
318 317 316 316 316 317 317 318 319 318 317 315 314 313 312 312 312 311 311 311 309 306 303 299 296 291 286 279 272 265 258 251 244 237 230 225 222 221 222 223 223 223 222
319 318 317 317 316 317 318 318 319 319 318 317 316 315 315 314 314 314 314 313 311 308 305 301 297 293 288 281 274 266 258 251 244 238 231 225 220 218 218 219 220 220 220
320 318 318 317 317 317 318 319 320 320 320 319 318 318 318 317 317 317 316 314 311 309 306 303 300 296 291 285 277 267 258 251 244 237 231 226 220 217 215 215 217 218 218
320 318 318 318 318 318 319 320 321 322 321 321 320 320 320 319 319 319 317 315 312 310 308 305 303 300 295 289 280 270 260 251 243 237 231 226 221 216 213 212 213 215 215
320 319 318 318 319 320 320 321 322 323 323 322 322 321 322 321 321 321 320 317 314 312 310 308 306 303 300 293 285 275 263 252 243 236 230 225 221 217 213 211 211 212 213
319 319 319 319 320 321 322 323 324 324 324 323 323 323 323 324 324 325 322 319 316 314 312 311 309 307 304 299 291 280 267 253 242 235 229 224 220 217 214 210 209 209 210
319 319 319 320 320 321 323 324 325 325 325 325 324 324 324 325 326 327 326 322 319 317 314 313 311 311 309 305 297 287 272 256 242 234 228 222 219 216 214 211 208 207 207
318 318 319 319 321 322 324 325 326 326 326 325 325 325 325 325 325 327 328 326 323 320 317 315 313 313 312 309 303 292 277 258 242 233 226 221 217 214 212 211 208 206 206
317 318 318 319 321 322 324 326 326 326 326 326 325 326 326 326 326 326 327 328 327 325 320 317 314 315 314 312 307 295 281 262 242 232 225 219 215 213 211 210 208 206 204
316 317 318 319 321 323 324 325 326 326 326 325 326 326 326 326 327 327 327 328 329 328 324 319 316 316 316 315 311 299 286 267 245 231 224 218 214 211 210 208 207 205 203
315 316 318 320 321 323 324 325 325 325 325 325 326 326 327 327 327 328 328 328 329 331 328 323 318 316 317 317 314 304 291 274 249 231 222 216 212 210 209 207 206 205 203
315 316 318 320 321 322 323 324 324 324 324 325 326 327 327 328 328 328 328 328 328 330 332 326 321 318 317 318 315 309 296 280 256 234 221 214 210 208 207 206 205 204 203
314 315 317 319 320 321 322 324 324 323 324 325 326 327 328 328 329 329 329 328 328 328 331 329 324 320 319 318 316 312 302 284 264 239 222 212 208 207 205 205 204 203 202
314 315 317 318 320 320 322 323 323 323 323 325 326 328 328 329 330 330 330 329 328 327 329 330 325 322 320 318 316 314 307 290 271 246 224 212 207 205 205 204 203 202 201
313 315 317 318 319 320 321 322 322 322 323 325 326 328 329 330 331 330 330 329 328 327 328 330 327 324 322 318 316 314 309 297 277 252 227 213 206 204 203 203 202 201 201
313 315 317 318 319 319 320 321 321 322 323 325 327 328 329 330 331 331 331 330 329 328 327 328 328 326 324 320 316 314 310 300 283 258 232 216 208 204 203 202 202 201 200
313 315 317 318 318 318 319 320 321 321 323 325 327 329 330 331 331 331 331 331 329 329 328 328 328 327 325 322 319 316 312 303 287 265 237 219 209 205 203 202 201 201 200
312 314 316 317 317 318 319 320 321 321 323 325 327 329 330 330 331 332 333 332 331 330 329 328 329 329 327 325 322 318 314 305 290 268 241 222 211 206 204 203 202 201 200
312 313 315 316 317 317 318 319 320 321 323 325 327 329 330 331 332 333 333 333 331 330 329 329 329 328 328 326 324 320 315 307 292 270 244 223 213 207 205 203 202 201 200
312 314 315 315 316 317 318 319 320 321 323 325 328 329 331 331 332 333 334 334 332 330 329 328 328 328 327 325 323 321 316 308 294 271 245 222 212 206 205 203 203 202 200
313 314 315 315 315 316 317 319 320 321 323 325 328 330 331 332 332 333 334 334 334 331 329 327 326 327 326 325 324 321 315 307 293 270 241 218 209 205 204 203 203 202 201
312 313 314 315 315 316 317 318 320 321 323 325 327 330 331 332 333 333 335 336 335 332 329 327 327 327 327 326 325 322 315 305 290 264 233 212 204 201 201 201 202 202 201
312 313 314 314 315 316 317 318 320 321 323 325 327 329 331 332 333 334 336 336 336 333 330 328 327 327 327 326 325 322 315 302 283 253 224 208 200 196 196 198 200 201 201
Height
5785 5780 5775 5770 5764 5759 5753 5747 5741 5735 5729 5723 5716 5710 5704 5697 5689 5682 5674 5666 5657 5647 5636 5626 5616 5607 5600 5595 5594 5597 5604 5617 5633 5651 5669 5685 5699 5712 5724 5737 5749 5760 5771
5777 5772 5766 5761 5755 5749 5743 5737 5730 5724 5717 5710 5702 5695 5687 5679 5671 5662 5652 5641 5629 5616 5603 5590 5578 5568 5560 5553 5550 5551 5556 5566 5582 5602 5623 5645 5664 5681 5696 5711 5725 5739 5751
5768 5763 5757 5751 5745 5739 5733 5726 5719 5711 5704 5697 5689 5680 5671 5661 5651 5640 5628 5615 5601 5586 5570 5555 5542 5531 5522 5516 5513 5512 5516 5523 5536 5553 5575 5600 5624 5646 5665 5683 5700 5716 5730
5760 5754 5748 5741 5735 5728 5721 5714 5706 5699 5691 5683 5674 5665 5654 5643 5631 5618 5604 5588 5572 5555 5538 5522 5508 5497 5488 5482 5479 5477 5480 5486 5497 5511 5530 5554 5581 5607 5630 5652 5672 5690 5707
5752 5745 5738 5731 5724 5717 5710 5702 5694 5686 5677 5668 5660 5649 5638 5625 5611 5595 5578 5560 5542 5524 5507 5492 5478 5467 5458 5452 5448 5446 5447 5452 5461 5475 5492 5513 5538 5566 5593 5619 5642 5662 5682
5743 5736 5728 5721 5714 5706 5698 5689 5681 5672 5662 5653 5644 5633 5620 5605 5588 5571 5552 5533 5514 5496 5479 5464 5451 5440 5431 5424 5419 5417 5417 5422 5430 5442 5458 5477 5500 5527 5556 5584 5610 5634 5656
5733 5726 5718 5710 5702 5694 5685 5677 5667 5657 5647 5637 5628 5618 5605 5588 5569 5549 5529 5509 5489 5471 5454 5439 5427 5416 5407 5400 5394 5390 5390 5394 5401 5413 5428 5447 5468 5493 5520 5549 5577 5604 5629
5723 5715 5707 5699 5690 5682 5672 5663 5653 5643 5631 5619 5608 5598 5587 5575 5555 5534 5511 5488 5467 5449 5432 5417 5405 5394 5384 5377 5371 5367 5365 5368 5375 5386 5401 5419 5440 5463 5488 5516 5545 5574 5601
5712 5704 5696 5687 5678 5669 5659 5649 5638 5627 5616 5602 5587 5574 5561 5550 5536 5521 5497 5473 5450 5431 5413 5399 5387 5375 5365 5356 5350 5346 5344 5346 5353 5362 5375 5393 5413 5436 5460 5486 5515 5544 5573
5701 5693 5684 5675 5666 5656 5646 5635 5623 5611 5599 5585 5570 5554 5538 5521 5506 5496 5483 5459 5437 5417 5398 5383 5370 5359 5349 5340 5334 5329 5326 5327 5332 5341 5352 5367 5386 5409 5434 5460 5487 5516 5545
5690 5682 5673 5663 5653 5643 5632 5620 5608 5595 5582 5568 5553 5537 5520 5502 5482 5465 5456 5444 5425 5404 5385 5369 5356 5345 5336 5327 5320 5314 5311 5310 5314 5321 5331 5345 5363 5384 5409 5435 5461 5489 5519
5679 5670 5661 5651 5641 5630 5618 5606 5593 5580 5566 5552 5536 5520 5503 5485 5467 5447 5432 5421 5409 5394 5374 5358 5343 5332 5324 5316 5308 5302 5298 5297 5299 5305 5313 5326 5342 5361 5384 5409 5436 5464 5493
5667 5658 5649 5639 5628 5617 5605 5592 5579 5566 5551 5536 5521 5504 5486 5468 5450 5432 5415 5402 5392 5381 5365 5349 5333 5321 5313 5305 5298 5291 5288 5285 5285 5290 5297 5309 5324 5342 5363 5387 5413 5441 5470
5655 5646 5637 5626 5615 5603 5591 5579 5566 5552 5537 5522 5506 5490 5473 5455 5436 5418 5401 5385 5375 5369 5356 5340 5326 5312 5303 5295 5288 5282 5278 5274 5274 5276 5283 5294 5308 5325 5345 5369 5393 5420 5448
5643 5634 5624 5613 5602 5590 5578 5566 5553 5538 5524 5509 5493 5477 5460 5442 5425 5407 5390 5373 5359 5350 5346 5332 5318 5305 5294 5286 5279 5273 5268 5265 5263 5264 5270 5279 5293 5310 5329 5351 5376 5402 5429
5631 5621 5610 5600 5589 5577 5565 5553 5539 5525 5511 5496 5480 5465 5448 5431 5414 5397 5381 5366 5350 5337 5331 5324 5311 5299 5287 5278 5271 5264 5259 5255 5253 5254 5258 5266 5279 5295 5314 5335 5358 5384 5412
5618 5608 5598 5587 5576 5564 5552 5540 5527 5513 5499 5484 5468 5453 5437 5420 5404 5388 5372 5358 5344 5330 5320 5314 5303 5292 5280 5271 5263 5256 5250 5246 5244 5244 5247 5254 5266 5281 5299 5320 5343 5368 5396
5605 5595 5585 5574 5563 5551 5539 5527 5514 5501 5487 5472 5457 5441 5426 5409 5394 5378 5364 5350 5336 5323 5312 5304 5296 5285 5274 5264 5256 5249 5242 5237 5235 5234 5236 5243 5254 5268 5286 5307 5329 5354 5381
5592 5582 5572 5561 5550 5539 5527 5515 5502 5489 5475 5461 5446 5431 5415 5400 5385 5370 5356 5342 5329 5316 5305 5295 5288 5278 5268 5257 5249 5242 5235 5229 5226 5225 5227 5233 5244 5257 5274 5294 5316 5341 5367
5579 5569 5559 5549 5537 5526 5514 5503 5491 5478 5464 5450 5435 5420 5405 5390 5376 5362 5348 5334 5322 5310 5298 5288 5280 5271 5261 5251 5242 5235 5229 5222 5219 5217 5219 5224 5234 5247 5264 5284 5306 5330 5356
5565 5556 5546 5536 5525 5514 5502 5491 5479 5467 5453 5439 5425 5410 5395 5381 5367 5352 5338 5325 5313 5301 5291 5281 5272 5263 5254 5245 5236 5228 5222 5216 5212 5210 5211 5216 5224 5238 5255 5275 5296 5320 5345
5552 5543 5533 5523 5512 5502 5491 5479 5468 5456 5443 5430 5416 5401 5387 5372 5358 5345 5331 5317 5304 5293 5283 5274 5265 5256 5248 5239 5230 5223 5216 5211 5207 5205 5205 5210 5217 5231 5247 5267 5288 5311 5336
5538 5530 5520 5511 5500 5490 5479 5468 5456 5445 5433 5420 5406 5393 5379 5365 5351 5338 5325 5312 5299 5287 5277 5268 5259 5251 5242 5234 5226 5218 5212 5206 5203 5200 5201 5205 5212 5225 5240 5259 5280 5303 5327
5525 5517 5508 5498 5489 5478 5468 5457 5446 5435 5422 5410 5397 5384 5371 5358 5344 5331 5319 5307 5294 5282 5272 5263 5255 5246 5238 5229 5221 5215 5209 5204 5200 5198 5198 5201 5208 5220 5234 5253 5274 5297 5320
5512 5504 5495 5486 5477 5467 5456 5446 5436 5425 5413 5400 5387 5375 5362 5350 5338 5325 5313 5301 5290 5278 5267 5258 5249 5241 5233 5225 5217 5211 5206 5201 5199 5197 5198 5200 5206 5216 5230 5249 5268 5290 5313
5500 5492 5483 5474 5465 5456 5446 5436 5425 5415 5404 5392 5379 5367 5354 5342 5330 5317 5306 5295 5284 5274 5264 5255 5246 5237 5229 5222 5215 5208 5203 5199 5197 5197 5198 5201 5205 5214 5227 5243 5262 5282 5305